Retour au catalogue

DELTA 1 DEB

ActifSSO
NORAD 21366·DEBRIS·🇺🇸 United States

Lancé Jun 12, 1975 depuis Vandenberg Space Force Base

Loading…

Prochains Passages (prochaines 24 heures)

TLE

FraisSource: Space-Track

Époque: Sep 14, 2026, 11:13 UTC

1 21366U 75052CL  26257.46795235  .00000068  00000-0  18984-3 0  9997
2 21366  99.6378 110.7720 0022475  97.5903  19.9011 13.43850167729853

Suivez DELTA 1 DEB en temps réel avec AllMySat

Download on the App Store